Weather History for Hammond, LA

Change the Weather History Date:

Wednesday, January 30, 2013

  Actual Average (KMSY) Record (KMSY)
Temperature  
Mean Temperature 58 °F -  
Max Temperature 73 °F 64 °F 82 °F (1957)
Min Temperature 42 °F 46 °F 18 °F (1966)
Degree Days  
Heating Degree Days 8    
Growing Degree Days 8 (Base 50)    
Moisture  
Dew Point 50 °F    
Average Humidity 75    
Maximum Humidity 100    
Minimum Humidity 39    
Precipitation  
Precipitation 0.00 in - - ()
Sea Level Pressure  
Sea Level Pressure 29.88 in    
Wind  
Wind Speed 13 mph (West)    
Max Wind Speed 23 mph    
Max Gust Speed 32 mph    
Visibility 10 miles    
Events Rain , Thunderstorm    
Averages and records for this station are not official NWS values.
T = Trace of Precipitation, MM = Missing Value Source: NWS Daily Summary

Daily Weather History Graph

Daily Weather History Graph

Search for Another Location

Airport:

Trip Planner

Search our weather history database for the weather conditions in past years. The results will help you decide how hot, cold, wet, or windy it might be!

Date:

Astronomy

Jan. 30, 2013 Rise Set
Actual Time 6:53 AM CST 5:36 PM CST
Civil Twilight 6:28 AM CST 6:01 PM CST
Nautical Twilight 5:59 AM CST 6:30 PM CST
Astronomical Twilight 5:31 AM CST 6:59 PM CST
Moon 9:14 PM CST (1/30) 8:40 AM CST (1/30)
Length of Visible Light 11h 33m
Length of Day
10h 42m
Waning Gibbous, 87% of the Moon is Illuminated
Jan 30
Waning Gibbous
Feb 3
Last Quarter
Feb 10
New
Feb 17
First Quarter
Feb 25
Full

Hourly Weather History & Observations

Time (CST) Temp. Windchill Dew Point Humidity Pressure Visibility Wind Dir Wind Speed Gust Speed Precip Events Conditions
12:15 AM 73.4 °F - 69.8 °F 88% 29.80 in 10.0 mi South 15.0 mph - N/A   Overcast
12:35 AM 73.4 °F - 69.8 °F 88% 29.80 in 10.0 mi South 9.2 mph - N/A   Overcast
12:55 AM 73.4 °F - 69.8 °F 88% 29.79 in 10.0 mi South 12.7 mph 17.3 mph N/A   Overcast
1:15 AM 73.4 °F - 69.8 °F 88% 29.77 in 10.0 mi South 16.1 mph 21.9 mph N/A   Mostly Cloudy
1:35 AM 73.4 °F - 69.8 °F 88% 29.77 in 10.0 mi South 16.1 mph 23.0 mph N/A   Mostly Cloudy
1:55 AM 73.4 °F - 69.8 °F 88% 29.77 in 10.0 mi SSW 12.7 mph 23.0 mph N/A   Overcast
2:15 AM 73.4 °F - 69.8 °F 88% 29.77 in 10.0 mi South 15.0 mph 23.0 mph N/A   Overcast
2:35 AM 73.4 °F - 69.8 °F 88% 29.76 in 10.0 mi South 15.0 mph 20.7 mph N/A   Overcast
2:55 AM 73.4 °F - 69.8 °F 88% 29.76 in 10.0 mi South 12.7 mph 20.7 mph N/A   Overcast
3:15 AM 73.4 °F - 69.8 °F 88% 29.75 in 10.0 mi South 12.7 mph 19.6 mph N/A Rain Rain
3:35 AM 71.6 °F - 69.8 °F 94% 29.74 in 10.0 mi South 16.1 mph 20.7 mph N/A Rain Light Rain
3:55 AM 71.6 °F - 69.8 °F 94% 29.73 in 7.0 mi South 15.0 mph 24.2 mph N/A   Drizzle
4:15 AM 71.6 °F - 69.8 °F 94% 29.72 in 10.0 mi South 15.0 mph - N/A   Overcast
4:35 AM 71.6 °F - 69.8 °F 94% 29.70 in 10.0 mi South 16.1 mph 24.2 mph N/A   Overcast
4:55 AM 71.6 °F - 69.8 °F 94% 29.69 in 7.0 mi South 11.5 mph - N/A   Drizzle
5:15 AM 71.6 °F - 69.8 °F 94% 29.67 in 10.0 mi South 12.7 mph 21.9 mph N/A   Overcast
5:35 AM 73.4 °F - 69.8 °F 88% 29.67 in 10.0 mi South 18.4 mph - N/A   Overcast
5:55 AM 73.4 °F - 69.8 °F 88% 29.69 in 10.0 mi SSW 12.7 mph 23.0 mph N/A Thunderstorm Overcast
6:15 AM 64.4 °F - 62.6 °F 94% 29.71 in 5.0 mi WNW 18.4 mph 31.1 mph N/A Rain Heavy Rain
6:35 AM 60.8 °F - 59.0 °F 94% 29.74 in 2.0 mi WNW 20.7 mph - N/A Rain , Thunderstorm Heavy Thunderstorms and Rain
6:55 AM 57.2 °F - 57.2 °F 100% 29.74 in 3.0 mi WNW 12.7 mph - N/A Rain , Thunderstorm Heavy Thunderstorms and Rain
7:15 AM 57.2 °F - 55.4 °F 94% 29.76 in 10.0 mi NNW 4.6 mph - N/A Rain Rain
7:35 AM 55.4 °F - 55.4 °F 100% 29.75 in 10.0 mi NW 8.1 mph - N/A Rain Light Rain
7:55 AM 55.4 °F - 53.6 °F 94% 29.76 in 10.0 mi NNW 4.6 mph - N/A Rain Rain
8:15 AM 55.4 °F - 53.6 °F 94% 29.77 in 10.0 mi NW 3.5 mph - N/A Rain Rain
8:35 AM 55.4 °F - 55.4 °F 100% 29.78 in 10.0 mi West 4.6 mph - N/A Rain Light Rain
8:55 AM 55.4 °F - 55.4 °F 100% 29.79 in 7.0 mi Calm Calm - N/A Rain Light Rain
9:15 AM 55.4 °F - 55.4 °F 100% 29.79 in 10.0 mi WNW 4.6 mph - N/A Rain Light Rain
9:35 AM 55.4 °F - 55.4 °F 100% 29.80 in 10.0 mi WSW 3.5 mph - N/A Rain Light Rain
9:55 AM 57.2 °F - 55.4 °F 94% 29.82 in 10.0 mi WSW 3.5 mph - N/A Rain Light Rain
10:15 AM 57.2 °F - 55.4 °F 94% 29.82 in 10.0 mi West 5.8 mph - N/A Rain Light Rain
10:35 AM 57.2 °F - 55.4 °F 94% 29.82 in 10.0 mi West 6.9 mph - N/A   Light Drizzle
10:55 AM 59.0 °F - 55.4 °F 88% 29.82 in 10.0 mi WNW 8.1 mph - N/A   Overcast
11:15 AM 59.0 °F - 53.6 °F 82% 29.82 in 10.0 mi West 9.2 mph - N/A   Overcast
11:35 AM 59.0 °F - 53.6 °F 82% 29.83 in 10.0 mi West 10.4 mph - N/A   Overcast
11:55 AM 59.0 °F - 50.0 °F 72% 29.84 in 10.0 mi West 16.1 mph - N/A   Overcast
12:15 PM 59.0 °F - 48.2 °F 67% 29.83 in 10.0 mi West 13.8 mph 19.6 mph N/A   Overcast
12:35 PM 59.0 °F - 48.2 °F 67% 29.83 in 10.0 mi West 11.5 mph - N/A   Overcast
12:55 PM 59.0 °F - 46.4 °F 63% 29.82 in 10.0 mi West 15.0 mph 18.4 mph N/A   Overcast
1:15 PM 59.0 °F - 42.8 °F 55% 29.83 in 10.0 mi West 11.5 mph 17.3 mph N/A   Overcast
1:35 PM 60.8 °F - 39.2 °F 45% 29.83 in 10.0 mi West 20.7 mph 28.8 mph N/A   Overcast
1:55 PM 59.0 °F - 39.2 °F 48% 29.84 in 10.0 mi WNW 17.3 mph 25.3 mph N/A   Overcast
2:15 PM 59.0 °F - 39.2 °F 48% 29.84 in 10.0 mi West 17.3 mph 20.7 mph N/A   Overcast
2:35 PM 59.0 °F - 39.2 °F 48% 29.85 in 10.0 mi West 12.7 mph 20.7 mph N/A   Overcast
2:55 PM 60.8 °F - 39.2 °F 45% 29.86 in 10.0 mi West 19.6 mph 27.6 mph N/A   Mostly Cloudy
3:15 PM 60.8 °F - 35.6 °F 39% 29.87 in 10.0 mi West 23.0 mph 28.8 mph N/A   Scattered Clouds
3:35 PM 60.8 °F - 37.4 °F 42% 29.88 in 10.0 mi WNW 23.0 mph 31.1 mph N/A   Clear
3:55 PM 59.0 °F - 37.4 °F 45% 29.89 in 10.0 mi West 17.3 mph 31.1 mph N/A   Clear
4:15 PM 59.0 °F - 37.4 °F 45% 29.89 in 10.0 mi West 17.3 mph 29.9 mph N/A   Clear
4:35 PM 59.0 °F - 39.2 °F 48% 29.92 in 10.0 mi WNW 18.4 mph 32.2 mph N/A   Clear
4:55 PM 57.2 °F - 39.2 °F 51% 29.93 in 10.0 mi WNW 20.7 mph 29.9 mph N/A   Clear
5:15 PM 57.2 °F - 39.2 °F 51% 29.95 in 10.0 mi WNW 17.3 mph 23.0 mph N/A   Clear
5:35 PM 55.4 °F - 37.4 °F 51% 29.96 in 10.0 mi WNW 19.6 mph 25.3 mph N/A   Clear
5:55 PM 53.6 °F - 39.2 °F 58% 29.98 in 10.0 mi WNW 15.0 mph 18.4 mph N/A   Clear
6:15 PM 51.8 °F - 37.4 °F 58% 30.00 in 10.0 mi WNW 15.0 mph 26.5 mph N/A   Clear
6:35 PM 51.8 °F - 37.4 °F 58% 30.02 in 10.0 mi NW 15.0 mph 25.3 mph N/A   Clear
6:55 PM 50.0 °F - 37.4 °F 62% 30.05 in 10.0 mi NW 15.0 mph 21.9 mph N/A   Clear
7:15 PM 50.0 °F - 37.4 °F 62% 30.07 in 10.0 mi NW 13.8 mph 18.4 mph N/A   Clear
7:35 PM 50.0 °F - 37.4 °F 62% 30.09 in 10.0 mi NW 13.8 mph 17.3 mph N/A   Clear
7:55 PM 48.2 °F - 35.6 °F 62% 30.10 in 10.0 mi NW 18.4 mph 25.3 mph N/A   Clear
8:15 PM 48.2 °F - 35.6 °F 62% 30.11 in 10.0 mi NW 9.2 mph - N/A   Clear
8:35 PM 48.2 °F - 35.6 °F 62% 30.12 in 10.0 mi NW 10.4 mph - N/A   Clear
8:55 PM 46.4 °F 44.3 °F 35.6 °F 66% 30.13 in 10.0 mi WNW 4.6 mph - N/A   Clear
9:15 PM 44.6 °F 43.1 °F 35.6 °F 71% 30.14 in 10.0 mi WNW 3.5 mph - N/A   Clear
9:35 PM 44.6 °F 41.4 °F 35.6 °F 71% 30.15 in 10.0 mi WNW 5.8 mph - N/A   Clear
9:55 PM 44.6 °F 43.1 °F 35.6 °F 71% 30.16 in 10.0 mi NW 3.5 mph - N/A   Clear
10:15 PM 42.8 °F 41.1 °F 35.6 °F 76% 30.18 in 10.0 mi WNW 3.5 mph - N/A   Clear
10:35 PM 42.8 °F - 35.6 °F 76% 30.18 in 10.0 mi Calm Calm - N/A   Clear
10:55 PM 42.8 °F 41.1 °F 35.6 °F 76% 30.19 in 10.0 mi NW 3.5 mph - N/A   Clear
11:15 PM 42.8 °F 41.1 °F 35.6 °F 76% 30.19 in 10.0 mi NW 3.5 mph - N/A   Clear
11:35 PM 42.8 °F 41.1 °F 35.6 °F 76% 30.20 in 10.0 mi NW 3.5 mph - N/A   Clear
11:55 PM 42.8 °F - 35.6 °F 76% 30.21 in 10.0 mi Calm Calm - N/A   Clear